Tianmu 1-15

operational
NORAD ID: 58700 Int'l Des: 2024-004 Owner: TIANMU Country: CN
LEOCIRCULARRETROGRADESSO

Über Tianmu 1-15

Beschreibung wird geladen...

Live-Position

3D-Globus wird geladen...

Nächste Überflüge

Höhenverlauf

Altitude vs Time

uPlot chart will show altitude changes over time

Zweizeiliger Elementsatz

1 58700U 24004A 26063.21169865 .00009520 00000-0 37570-3 0 9996
2 58700 97.4660 249.4577 0007147 9.4707 350.6664 15.25735846119768
Epoch: 4. März 2026 • Age: 13 hours

Aktueller Status

Höhe 517.6 km
Geschwindigkeit 7.60 km/s
Subsatellitenpunkt -82.54°S, 16.63°W
Startdatum 5. Jan. 2024
Alter 2.1 years
Typ other

Technische Details

Klassifizierung Payload
Masse 50.00 kg
Trockenmasse 50.00 kg
Gesamtmasse 50.00 kg
Länge 1.50 m
Durchmesser 1.00 m
Spannweite 1.50 m
Form Box
Hersteller TIANMU
Bus-Typ Tianmu
Phasenstatus In Orbit
Besitzer/Staat TIANMU/CN

Große Konstellationen

Loading constellations...